#timestamp,LO_Frequency,Hit,StdDev 
1579798815.2,286047000.2,N
1579798835.0,286047000.0,N
1579798835.9,286047000.0,N
1579798855.8,286046999.8,N
1579798875.6,286047004.0,N
1579798895.5,286047001.6,N
1579798915.3,286047001.1,N
1579798935.1,286047000.3,N
1579798955.9,286047002.4,N
1579798975.7,286047002.0,N
1579798995.5,286047002.2,N
1579799015.4,286047003.7,N
1579799035.2,286047003.9,N
1579799055.1,286046999.8,N
1579799056.0,286046999.8,N
1579799075.8,286047000.9,N
1579799095.6,286047000.7,N
1579799115.5,286047000.2,N
1579799135.3,286046999.7,N
1579799155.1,286047000.1,N
1579799175.9,286046999.8,N
1579799195.7,286046999.7,N
1579799215.6,286047002.4,N
1579799235.4,286047003.9,N
1579799255.2,286047003.2,N
1579799275.1,286047005.8,Y
1579799276.0,286047005.8,P
1579799295.8,286047002.1,N
1579799315.6,286047002.3,N
1579799335.5,286047001.4,N
1579799355.3,286047005.7,Y
1579799375.2,286046999.7,P
1579799395.9,286047001.2,N
1579799415.7,286046999.9,N
1579799435.6,286047001.1,N
1579799455.4,286047000.5,N
1579799475.2,286047000.8,N
1579799495.1,286046998.9,N
1579799496.0,286046998.9,N
1579799515.8,286046996.9,N
1579799535.7,286046996.5,N
1579799555.5,286046996.9,N
1579799575.3,286046997.2,N
1579799595.2,286046995.3,N
1579799615.9,286046997.7,N
1579799635.7,286046996.7,N
1579799655.6,286046996.8,N
1579799675.4,286047000.7,N
1579799695.2,286046998.4,N
1579799715.1,286046997.7,N
1579799716.0,286046997.7,N
1579799735.8,286046997.1,N
1579799755.7,286046998.4,N
1579799775.5,286046998.3,N
1579799795.3,286046998.1,N
1579799815.2,286047001.3,N
1579799835.0,286047000.3,N
1579799835.9,286047000.3,N
1579799855.7,286047000.6,N
1579799875.6,286046998.2,N
1579799895.4,286046998.1,N
1579799915.3,286046998.3,N
1579799935.1,286046999.1,N
1579799936.0,286046999.1,N
1579799955.8,286047001.1,N
1579799975.7,286046998.9,N
1579799995.5,286047000.8,N
1579800015.3,286047000.9,N
1579800035.2,286047000.6,N
1579800055.0,286047002.4,N
1579800055.9,286047002.4,N
1579800075.8,286047001.6,N
1579800095.6,286047002.0,N
1579800115.4,286047004.3,N
1579800135.3,286047002.1,N
1579800155.1,286047000.5,N
1579800175.9,286047000.0,N
1579800195.7,286046999.9,N
1579800215.5,286046998.1,N
1579800235.4,286046998.4,N
1579800255.2,286047001.2,N
1579800275.0,286047000.1,N
1579800275.9,286047000.1,N
1579800295.8,286047000.6,N
1579800315.6,286047001.1,N
1579800335.5,286047000.7,N
1579800355.3,286047000.9,N
1579800375.1,286046999.8,N
1579800395.9,286047002.6,N
1579800415.7,286046998.1,N
1579800435.5,286046996.6,N
1579800455.4,286047000.9,N
1579800475.2,286047000.8,N
1579800495.0,286046999.0,N
1579800496.0,286046999.0,N
1579800515.8,286046996.6,N
1579800535.6,286046996.7,N
1579800555.5,286046998.1,N
1579800575.3,286046998.6,N
1579800595.1,286046998.8,N
1579800615.9,286046996.7,N
1579800635.7,286046998.5,N
1579800655.6,286047000.0,N
1579800675.4,286047000.4,N
1579800695.2,286047001.0,N
1579800715.1,286047000.9,N
1579800716.0,286047000.9,N
1579800735.8,286046996.6,N
1579800755.6,286046997.2,N
1579800775.5,286046998.8,N
1579800795.3,286046997.3,N
1579800815.2,286046999.5,N
1579800835.9,286047000.2,N
1579800855.7,286047000.4,N
1579800875.6,286046998.8,N
1579800895.4,286046997.1,N
1579800915.2,286046995.3,N
1579800935.1,286046995.3,N
1579800936.0,286046995.3,N
1579800955.8,286046997.0,N
1579800975.7,286047000.8,N
1579800995.5,286047001.0,N
1579801015.3,286047000.0,N
1579801035.2,286047001.2,N
1579801055.0,286046999.6,N
1579801055.9,286046999.6,N
1579801075.8,286046999.1,N
1579801095.6,286046999.6,N
1579801115.4,286046997.0,N
1579801135.3,286046997.1,N
1579801155.1,286046998.5,N
1579801175.8,286046999.6,N
1579801195.7,286046995.2,N
1579801215.5,286046997.4,N
1579801235.4,286046999.3,N
1579801255.2,286046999.5,N
1579801275.0,286046999.1,N
1579801275.9,286046999.1,N
1579801295.8,286046996.9,N
1579801315.6,286046999.0,N
1579801335.5,286046998.8,N
1579801355.3,286047001.2,N
1579801375.1,286047002.3,N
1579801395.9,286047002.2,N
1579801415.7,286047002.2,N
1579801435.5,286047001.4,N
1579801455.4,286047001.9,N
1579801475.2,286047004.0,N
1579801495.1,286047001.3,N
1579801496.0,286047001.3,N
1579801515.8,286047003.9,N
1579801535.6,286047004.0,N
1579801555.5,286047001.4,N
1579801575.3,286047001.7,N
1579801595.2,286047001.6,N
1579801615.9,286047003.7,N
1579801635.7,286047003.2,N
1579801655.6,286047001.4,N
1579801675.4,286047003.8,N
1579801695.2,286047002.9,N
1579801715.1,286047003.5,N
1579801716.0,286047003.5,N
1579801735.8,286047003.9,N
1579801755.7,286047003.8,N
1579801775.5,286047001.7,N
1579801795.3,286047004.4,N
1579801815.2,286047001.8,N
1579801835.0,286047001.5,N
1579801835.9,286047001.5,N
1579801855.7,286047004.0,N
1579801875.6,286047004.2,Y
1579801895.4,286047000.5,P
1579801915.3,286047002.8,N
1579801935.1,286046999.8,N
1579801936.0,286046999.8,N
1579801955.8,286046998.9,N
1579801975.7,286047000.9,N
1579801995.5,286047000.3,N
1579802015.4,286047000.2,N
1579802035.2,286047000.7,N
1579802055.0,286046998.4,N
1579802055.9,286046998.4,N
1579802075.8,286046999.0,N
1579802095.6,286046999.4,N
1579802115.4,286046998.6,N
1579802135.3,286046999.3,N
1579802155.1,286047001.2,N
1579802175.9,286047000.7,N
1579802195.7,286047002.8,N
1579802215.5,286047002.3,N
1579802235.4,286047002.8,N
1579802255.2,286046999.7,N
1579802275.0,286046999.7,N
1579802275.9,286046999.7,N
1579802295.8,286047001.2,N
1579802315.6,286046999.1,N
1579802335.5,286046996.8,N
1579802355.3,286046997.4,N
1579802375.1,286046997.4,N
1579802395.9,286046996.8,N
